Regional Weather Roundup
Issued by NWS

Home | Current Version | Previous Version | Text Only | Print | Product List | Glossary On
Versions: 1 2 3 4 5 6 7 8 9 10 11 12 13 14 15 16 17 18 19 20 21 22 23 24 25 26 27
000
ASUS42 KFFC 301703
RWRGA
WEATHER ROUNDUP FOR GEORGIA
NATIONAL WEATHER SERVICE PEACHTREE CITY GA
100 PM EDT SAT APR 30 2016

NOTE: "FAIR" INDICATES FEW OR NO CLOUDS BELOW 12,000 FEET WITH NO
SIGNIFICANT WEATHER AND/OR OBSTRUCTIONS TO VISIBILITY.

* = USE WITH CAUTION. THE STATIONS MARKED WITH AN ASTERISK MAY NOT
REPORT WEATHER SUCH AS PRECIPITATION, FOG, OR THUNDER AND ARE NOT
QUALITY CONTROLLED BY NWS.

THE REMARK "TC" DENOTES TEMPERATURE READING IN DEGREES CELSIUS.

GAZ001>058-301800-
NORTH GEORGIA

CITY           SKY/WX    TMP DP  RH WIND       PRES   REMARKS
ATLANTA        PTSUNNY   84  63  49 S14G21    29.99S
ATHENS         MOSUNNY   85  64  49 S9        30.00F
CHAMBLEE       MOSUNNY   85  63  47 S13G20    29.99S
PEACHTREE CITY MOSUNNY   84  66  54 S8        29.99S
ROME           CLOUDY    81  63  54 SE7       29.94F
WEST ATLANTA   MOSUNNY   84  62  47 S9        29.98S
GAINESVILLE    PTSUNNY   81  61  50 SE10      30.02F
CARTERSVILLE   CLOUDY    85  63  47 S12       29.96F


CITY           SKY/WX    TMP DP  RH WIND       PRES   REMARKS
DALTON*        CLOUDY    81  61  50 S8        29.96F
LAWRENCEVILLE* PTSUNNY   82  64  54 S10       30.01F
MARIETTA       CLOUDY    84  63  49 S12       29.98F
KENNESAW*      MOSUNNY   84  61  45 S9        29.93F
CANTON*        CLOUDY    82  50  32 E6        30.01S
BLAIRSVILLE*     N/A    N/A N/A N/A MISG      30.03F
$$

GAZ059>098-102>109-301800-
CENTRAL GEORGIA

CITY           SKY/WX    TMP DP  RH WIND       PRES   REMARKS
AUGUSTA-BUSH   MOSUNNY   86  65  49 S9        30.00F
AUGUSTA-DANIEL MOSUNNY   85  62  46 SE12      30.02F
COLUMBUS       PTSUNNY   84  65  52 SW13      29.97S
MACON          MOSUNNY   87  65  47 S15       29.97F
ROBINS AFB     MOSUNNY   87  69  54 S16G22    29.97F HX  90


CITY           SKY/WX    TMP DP  RH WIND       PRES   REMARKS
LAGRANGE*      MOSUNNY   86  71  61 S14G21    29.98F HX  91
SYLVANIA*      PTSUNNY   86  68  55 S7        30.03F
MILLEDGEVILLE* SUNNY     84  68  58 SE3       29.99F
$$

GAZ099>101-110>166-301800-
SOUTH GEORGIA

CITY           SKY/WX    TMP DP  RH WIND       PRES   REMARKS
SAVANNAH       PTSUNNY   85  64  49 SE12      30.02F
VALDOSTA       MOSUNNY   89  68  49 S13G22    29.97S HX  93
ALMA           CLOUDY    87  63  44 S12       30.00R
ST SIMONS      SUNNY     79  73  82 SE10      30.01F
FT STEWART     MOSUNNY   86  63  46 S10G16    29.99S
ALBANY         CLOUDY    86  68  54 MISG      29.98F
HUNTER AFB     MOSUNNY   82  69  64 SE13      30.00F
MOODY AFB      PTSUNNY   89  67  48 S10       29.97S HX  91
BRUNSWICK      SUNNY     86  68  54 S9        30.01F


CITY           SKY/WX    TMP DP  RH WIND       PRES   REMARKS
BAINBRIDGE*    CLOUDY    86  68  54 S7        29.97F
MOULTRIE*      CLOUDY    86  68  54 S7        29.98F
VIDALIA*       PTSUNNY   88  61  40 SE9       30.01S
WAYCROSS*      CLOUDY    87  63  44 SE9       29.99S
DOUGLAS*       MOSUNNY   88  61  40 S8        30.00S
$$




USA.gov is the U.S. government's official web portal to all federal, state and local government web resources and services.